User: anonymous   Login
Location: Hannover
(52.3723°N, 9.7339°E)
Time: 11:43:54
(UTC+01:00)
Language:

METEOR M2 - Orbit

View from above orbital plane
View from above orbital plane
View from above satellite
View from above satellite

Ground track
Ground track

The orbit data is extracted from the following two-line orbital elements,

1 40069U 14037A   20023.12107262 -.00000038  00000-0  18602-5 0  9996
2 40069  98.5241  66.0410 0005566 359.6180   0.4997 14.20669038287433
Epoch (UTC): 23 January 2020 02:54:20
Eccentricity: 0.0005566
inclination: 98.5241°
perigee height: 819 km
apogee height: 827 km
right ascension of ascending node: 66.0410°
argument of perigee: 359.6180°
revolutions per day: 14.20669038
mean anomaly at epoch: 0.4997°
orbit number at epoch: 28743

The dashed part of the orbit path shows where the satellite is in the earth's shadow,  

DLR